Year,Month,Day,Hour,Minute,Value (Times are PST for temperature in C)
2012,09,18,10,10,19.90
2012,09,18,10,11,19.90
2012,09,18,10,12,20.00
2012,09,18,10,13,20.10
2012,09,18,10,14,20.20
2012,09,18,10,15,20.20
2012,09,18,10,16,20.20
2012,09,18,10,17,20.20
2012,09,18,10,18,20.20
2012,09,18,10,19,20.20
2012,09,18,10,20,20.20
2012,09,18,10,21,20.20
2012,09,18,10,22,20.30
2012,09,18,10,23,20.30
2012,09,18,10,24,20.40
2012,09,18,10,25,20.40
2012,09,18,10,26,20.40
2012,09,18,10,27,20.30
2012,09,18,10,28,20.30
2012,09,18,10,29,20.30
2012,09,18,10,30,20.20
2012,09,18,10,31,20.30
2012,09,18,10,32,20.40
2012,09,18,10,33,20.50
2012,09,18,10,34,20.60
2012,09,18,10,35,20.60
2012,09,18,10,36,20.60
2012,09,18,10,37,20.70
2012,09,18,10,38,20.80
2012,09,18,10,39,20.90
2012,09,18,10,40,20.90
2012,09,18,10,41,20.90
2012,09,18,10,42,20.90
2012,09,18,10,43,20.90
2012,09,18,10,44,20.80
2012,09,18,10,45,20.80
2012,09,18,10,46,20.70
2012,09,18,10,47,20.70
2012,09,18,10,48,20.70
2012,09,18,10,49,20.80
2012,09,18,10,50,20.90
2012,09,18,10,51,20.90
2012,09,18,10,52,21.00
2012,09,18,10,53,21.10
2012,09,18,10,54,21.20
2012,09,18,10,55,21.30
2012,09,18,10,56,21.30
2012,09,18,10,57,21.30
2012,09,18,10,58,21.30
2012,09,18,10,59,21.30
2012,09,18,11,00,21.30
2012,09,18,11,01,21.30
2012,09,18,11,02,21.30
2012,09,18,11,03,21.30
2012,09,18,11,04,21.40
2012,09,18,11,05,21.60
2012,09,18,11,06,21.60
2012,09,18,11,07,21.60
2012,09,18,11,08,21.60
2012,09,18,11,09,21.60
2012,09,18,11,10,21.60
2012,09,18,11,11,21.60
2012,09,18,11,12,21.60
2012,09,18,11,13,21.50
2012,09,18,11,14,21.40
2012,09,18,11,15,21.30
2012,09,18,11,16,21.30
2012,09,18,11,17,21.30
2012,09,18,11,18,21.40
2012,09,18,11,19,21.40
2012,09,18,11,20,21.40
2012,09,18,11,21,21.40
2012,09,18,11,22,21.60
2012,09,18,11,23,21.70
2012,09,18,11,24,21.60
2012,09,18,11,25,21.60
2012,09,18,11,26,21.60
2012,09,18,11,27,21.60
2012,09,18,11,28,21.60
2012,09,18,11,29,21.60
2012,09,18,11,30,21.60
2012,09,18,11,31,21.60
2012,09,18,11,32,21.60
2012,09,18,11,33,21.40
2012,09,18,11,34,21.50
2012,09,18,11,35,21.50
2012,09,18,11,36,21.40
2012,09,18,11,37,21.30
2012,09,18,11,38,21.30
2012,09,18,11,39,21.30
2012,09,18,11,40,21.30
2012,09,18,11,41,21.40
2012,09,18,11,42,21.40
2012,09,18,11,43,21.40
2012,09,18,11,44,21.40
2012,09,18,11,45,21.40
2012,09,18,11,46,21.40
2012,09,18,11,47,21.40
2012,09,18,11,48,21.50
2012,09,18,11,49,21.60
2012,09,18,11,50,21.60
2012,09,18,11,51,21.60
2012,09,18,11,52,21.60
2012,09,18,11,53,21.60
2012,09,18,11,54,21.50
2012,09,18,11,55,21.40
2012,09,18,11,56,21.30
2012,09,18,11,57,21.20
2012,09,18,11,58,21.20
2012,09,18,11,59,21.10
2012,09,18,12,00,21.00
2012,09,18,12,01,21.00
2012,09,18,12,02,21.00
2012,09,18,12,03,21.00
2012,09,18,12,04,21.00
2012,09,18,12,05,20.90
2012,09,18,12,06,20.90
2012,09,18,12,07,20.80
2012,09,18,12,08,20.80
2012,09,18,12,09,20.80
2012,09,18,12,10,20.90
2012,09,18,12,11,20.90
2012,09,18,12,12,21.00
2012,09,18,12,13,21.20
2012,09,18,12,14,21.10
2012,09,18,12,15,21.10
2012,09,18,12,16,21.10
2012,09,18,12,17,21.10
2012,09,18,12,18,21.10
2012,09,18,12,19,21.10
2012,09,18,12,20,21.10
2012,09,18,12,21,21.20
2012,09,18,12,22,21.30
2012,09,18,12,23,21.40
2012,09,18,12,24,21.60
2012,09,18,12,25,21.60
2012,09,18,12,26,21.70
2012,09,18,12,27,21.80
2012,09,18,12,28,21.80
2012,09,18,12,29,21.70
2012,09,18,12,30,21.70
2012,09,18,12,31,21.60
2012,09,18,12,32,21.60
2012,09,18,12,33,21.60
2012,09,18,12,34,21.60
2012,09,18,12,35,21.80
2012,09,18,12,36,21.90
2012,09,18,12,37,22.00
2012,09,18,12,38,22.00
2012,09,18,12,39,22.00
2012,09,18,12,40,21.90
2012,09,18,12,41,21.90
2012,09,18,12,42,21.80
2012,09,18,12,43,21.70
2012,09,18,12,44,21.60
2012,09,18,12,45,21.60
2012,09,18,12,46,21.60
2012,09,18,12,47,21.60
2012,09,18,12,48,21.60
2012,09,18,12,49,21.60
2012,09,18,12,50,21.50
2012,09,18,12,51,21.40
2012,09,18,12,52,21.30
2012,09,18,12,53,21.10
2012,09,18,12,54,21.00
2012,09,18,12,55,20.90
2012,09,18,12,56,20.90
2012,09,18,12,57,20.80
2012,09,18,12,58,20.80
2012,09,18,12,59,20.80
2012,09,18,13,00,20.80
2012,09,18,13,01,20.80
2012,09,18,13,02,20.80
2012,09,18,13,03,20.80
2012,09,18,13,04,20.80
2012,09,18,13,05,20.90
2012,09,18,13,06,20.90
2012,09,18,13,07,20.90
2012,09,18,13,08,21.00
2012,09,18,13,09,20.90
2012,09,18,13,10,20.90
2012,09,18,13,11,20.80
2012,09,18,13,12,20.70
2012,09,18,13,13,20.70
2012,09,18,13,14,20.70
2012,09,18,13,15,20.80
2012,09,18,13,16,20.90
2012,09,18,13,17,21.10
2012,09,18,13,18,21.30
2012,09,18,13,19,21.30
2012,09,18,13,20,21.40
2012,09,18,13,21,21.50
2012,09,18,13,22,21.60
2012,09,18,13,23,21.40
2012,09,18,13,24,21.30
2012,09,18,13,25,21.20
2012,09,18,13,26,21.10
2012,09,18,13,27,21.00
2012,09,18,13,28,21.00
2012,09,18,13,29,21.00
2012,09,18,13,30,21.10
2012,09,18,13,31,21.10
2012,09,18,13,32,21.20
2012,09,18,13,33,21.20
2012,09,18,13,34,21.20
2012,09,18,13,35,21.20
2012,09,18,13,36,21.20
2012,09,18,13,37,21.20
2012,09,18,13,38,21.30
2012,09,18,13,39,21.30
2012,09,18,13,40,21.30
2012,09,18,13,41,21.30
2012,09,18,13,42,21.30
2012,09,18,13,43,21.30
2012,09,18,13,44,21.30
2012,09,18,13,45,21.30
2012,09,18,13,46,21.30
2012,09,18,13,47,21.30
2012,09,18,13,48,21.20
2012,09,18,13,49,21.10
2012,09,18,13,50,21.10
2012,09,18,13,51,21.10
2012,09,18,13,52,21.00
2012,09,18,13,53,20.90
2012,09,18,13,54,20.80
2012,09,18,13,55,20.70
2012,09,18,13,56,20.60
2012,09,18,13,57,20.60
2012,09,18,13,58,20.60
2012,09,18,13,59,20.60
2012,09,18,14,00,20.60
2012,09,18,14,01,20.60
2012,09,18,14,02,20.60
2012,09,18,14,03,20.60
2012,09,18,14,04,20.50
2012,09,18,14,05,20.40
2012,09,18,14,06,20.50
2012,09,18,14,07,20.60
2012,09,18,14,08,20.70
2012,09,18,14,09,20.80
2012,09,18,14,10,20.90
2012,09,18,14,11,21.00
2012,09,18,14,12,21.00
2012,09,18,14,13,21.10
2012,09,18,14,14,21.20
2012,09,18,14,15,21.20
2012,09,18,14,16,21.20
2012,09,18,14,17,21.20
2012,09,18,14,18,21.20
2012,09,18,14,19,21.10
2012,09,18,14,20,21.10
2012,09,18,14,21,21.00
2012,09,18,14,22,21.00
2012,09,18,14,23,21.00
2012,09,18,14,24,21.10
2012,09,18,14,25,21.20
2012,09,18,14,26,21.40
2012,09,18,14,27,21.80
2012,09,18,14,28,22.00
2012,09,18,14,29,22.00
2012,09,18,14,30,22.00
2012,09,18,14,31,22.00
2012,09,18,14,32,22.00
2012,09,18,14,33,21.90
2012,09,18,14,34,21.70
2012,09,18,14,35,21.50
2012,09,18,14,36,21.40
2012,09,18,14,37,21.30
2012,09,18,14,38,21.30
2012,09,18,14,39,21.20
2012,09,18,14,40,21.20
2012,09,18,14,41,21.20
2012,09,18,14,42,21.30
2012,09,18,14,43,21.40
2012,09,18,14,44,21.60
2012,09,18,14,45,21.70
2012,09,18,14,46,21.80
2012,09,18,14,47,21.80
2012,09,18,14,48,21.90
2012,09,18,14,49,21.90
2012,09,18,14,50,21.90
2012,09,18,14,51,21.90
2012,09,18,14,52,21.90
2012,09,18,14,53,21.80
2012,09,18,14,54,21.80
2012,09,18,14,55,21.70
2012,09,18,14,56,21.60
2012,09,18,14,57,21.50
2012,09,18,14,58,21.40
2012,09,18,14,59,21.30
2012,09,18,15,00,21.30
2012,09,18,15,01,21.40
2012,09,18,15,02,21.50
2012,09,18,15,03,21.60
2012,09,18,15,04,21.70
2012,09,18,15,05,21.90
2012,09,18,15,06,22.00
2012,09,18,15,07,22.20
2012,09,18,15,08,22.30
2012,09,18,15,09,22.30
2012,09,18,15,10,22.30
2012,09,18,15,11,22.20
2012,09,18,15,12,22.10
2012,09,18,15,13,22.00
2012,09,18,15,14,22.00
2012,09,18,15,15,22.00
2012,09,18,15,16,22.00
2012,09,18,15,17,21.90
2012,09,18,15,18,21.90
2012,09,18,15,19,21.70
2012,09,18,15,20,21.60
2012,09,18,15,21,21.60
2012,09,18,15,22,21.70
2012,09,18,15,23,21.90
2012,09,18,15,24,22.00
2012,09,18,15,25,22.20
2012,09,18,15,26,22.30
2012,09,18,15,27,22.30
2012,09,18,15,28,22.40
2012,09,18,15,29,22.40
2012,09,18,15,30,22.50
2012,09,18,15,31,22.50
2012,09,18,15,32,22.50
2012,09,18,15,33,22.50
2012,09,18,15,34,22.30
2012,09,18,15,35,22.20
2012,09,18,15,36,22.10
2012,09,18,15,37,22.10
2012,09,18,15,38,22.10
2012,09,18,15,39,22.10
2012,09,18,15,40,22.10
2012,09,18,15,41,22.30
2012,09,18,15,42,22.40
2012,09,18,15,43,22.60
2012,09,18,15,44,22.80
2012,09,18,15,45,22.90
2012,09,18,15,46,23.00
2012,09,18,15,47,23.20
2012,09,18,15,48,23.30
2012,09,18,15,49,23.50
2012,09,18,15,50,23.70
2012,09,18,15,51,23.80
2012,09,18,15,52,23.90
2012,09,18,15,53,24.00
2012,09,18,15,54,24.10
2012,09,18,15,55,24.20
2012,09,18,15,56,24.20
2012,09,18,15,57,24.10
2012,09,18,15,58,24.00
2012,09,18,15,59,23.90
2012,09,18,16,00,23.90
2012,09,18,16,01,23.90
2012,09,18,16,02,24.00
2012,09,18,16,03,24.10
2012,09,18,16,04,24.10
2012,09,18,16,05,24.10
2012,09,18,16,06,23.90
2012,09,18,16,07,23.80
2012,09,18,16,08,23.50
2012,09,18,16,09,23.40
2012,09,18,16,10,23.30
2012,09,18,16,11,23.30
2012,09,18,16,12,23.30
2012,09,18,16,13,23.40
2012,09,18,16,14,23.40
2012,09,18,16,15,23.40
2012,09,18,16,16,23.40
2012,09,18,16,17,23.40
2012,09,18,16,18,23.40
2012,09,18,16,19,23.40
2012,09,18,16,20,23.40
2012,09,18,16,21,23.30
2012,09,18,16,22,23.30
2012,09,18,16,23,23.30
2012,09,18,16,24,23.30
2012,09,18,16,25,23.30
2012,09,18,16,26,23.30
2012,09,18,16,27,23.30
2012,09,18,16,28,23.30
2012,09,18,16,29,23.20
2012,09,18,16,30,23.10
2012,09,18,16,31,23.10
2012,09,18,16,32,23.10
2012,09,18,16,33,23.10
2012,09,18,16,34,23.00
2012,09,18,16,35,22.90
2012,09,18,16,36,22.80
2012,09,18,16,37,22.70
2012,09,18,16,38,22.70
2012,09,18,16,39,22.70
2012,09,18,16,40,22.60
2012,09,18,16,41,22.40
2012,09,18,16,42,22.30
2012,09,18,16,43,22.30
2012,09,18,16,44,22.30
2012,09,18,16,45,22.20
2012,09,18,16,46,22.20
2012,09,18,16,47,22.30
2012,09,18,16,48,22.30
2012,09,18,16,49,22.30
2012,09,18,16,50,22.30
2012,09,18,16,51,22.30
2012,09,18,16,52,22.40
2012,09,18,16,53,22.50
2012,09,18,16,54,22.50
2012,09,18,16,55,22.50
2012,09,18,16,56,22.50
2012,09,18,16,57,22.40
2012,09,18,16,58,22.50
2012,09,18,16,59,22.60
2012,09,18,17,00,22.60
2012,09,18,17,01,22.70
2012,09,18,17,02,22.90
2012,09,18,17,03,23.00
2012,09,18,17,04,23.10
2012,09,18,17,05,23.10
2012,09,18,17,06,23.10
2012,09,18,17,07,23.20
2012,09,18,17,08,23.10
2012,09,18,17,09,23.10
2012,09,18,17,10,23.10
2012,09,18,17,11,23.10
2012,09,18,17,12,23.10
2012,09,18,17,13,23.10
2012,09,18,17,14,23.10
2012,09,18,17,15,22.90
2012,09,18,17,16,22.90
2012,09,18,17,17,22.90
2012,09,18,17,18,22.90
2012,09,18,17,19,22.90
2012,09,18,17,20,22.80
2012,09,18,17,21,22.80
2012,09,18,17,22,22.80
2012,09,18,17,23,22.80
2012,09,18,17,24,22.80
2012,09,18,17,25,22.80
2012,09,18,17,26,22.70
2012,09,18,17,27,22.70
2012,09,18,17,28,22.60
2012,09,18,17,29,22.60
2012,09,18,17,30,22.60
2012,09,18,17,31,22.50
2012,09,18,17,32,22.60
2012,09,18,17,33,22.60
2012,09,18,17,34,22.60
2012,09,18,17,35,22.50
2012,09,18,17,36,22.50
2012,09,18,17,37,22.40
2012,09,18,17,38,22.40
2012,09,18,17,39,22.40
2012,09,18,17,40,22.40
2012,09,18,17,41,22.40
2012,09,18,17,42,22.30
2012,09,18,17,43,22.30
2012,09,18,17,44,22.30
2012,09,18,17,45,22.20
2012,09,18,17,46,22.30
2012,09,18,17,47,22.20
2012,09,18,17,48,22.20
2012,09,18,17,49,22.10
2012,09,18,17,50,22.00
2012,09,18,17,51,22.00
2012,09,18,17,52,21.90
2012,09,18,17,53,21.80
2012,09,18,17,54,21.70
2012,09,18,17,55,21.70
2012,09,18,17,56,21.60
2012,09,18,17,57,21.60
2012,09,18,17,58,21.60
2012,09,18,17,59,21.60
2012,09,18,18,00,21.50
2012,09,18,18,01,21.40
2012,09,18,18,02,21.30
2012,09,18,18,03,21.30
2012,09,18,18,04,21.20
2012,09,18,18,05,21.20
2012,09,18,18,06,21.20
2012,09,18,18,07,21.10
2012,09,18,18,08,21.10
2012,09,18,18,09,21.10
2012,09,18,18,10,21.00
2012,09,18,18,11,21.00
2012,09,18,18,12,21.00
2012,09,18,18,13,20.90
2012,09,18,18,14,20.90
2012,09,18,18,15,20.80
2012,09,18,18,16,20.80
2012,09,18,18,17,20.80
2012,09,18,18,18,20.70
2012,09,18,18,19,20.70
2012,09,18,18,20,20.70
2012,09,18,18,21,20.70
2012,09,18,18,22,20.60
2012,09,18,18,23,20.60
2012,09,18,18,24,20.50
2012,09,18,18,25,20.50
2012,09,18,18,26,20.40
2012,09,18,18,27,20.40
2012,09,18,18,28,20.30
2012,09,18,18,29,20.30
2012,09,18,18,30,20.30
2012,09,18,18,31,20.20
2012,09,18,18,32,20.20
2012,09,18,18,33,20.20
2012,09,18,18,34,20.20
2012,09,18,18,35,20.20
2012,09,18,18,36,20.20
2012,09,18,18,37,20.20
2012,09,18,18,38,20.20
2012,09,18,18,39,20.20
2012,09,18,18,40,20.20
2012,09,18,18,41,20.30
2012,09,18,18,42,20.30
2012,09,18,18,43,20.20
2012,09,18,18,44,20.20
2012,09,18,18,45,20.20
2012,09,18,18,46,20.20
2012,09,18,18,47,20.20
2012,09,18,18,48,20.10
2012,09,18,18,49,20.10
2012,09,18,18,50,20.10
2012,09,18,18,51,20.00
2012,09,18,18,52,19.90
2012,09,18,18,53,19.90
2012,09,18,18,54,19.90
2012,09,18,18,55,19.90
2012,09,18,18,56,19.90
2012,09,18,18,57,19.90
2012,09,18,18,58,19.90
2012,09,18,18,59,19.90
2012,09,18,19,00,19.90
2012,09,18,19,01,19.80
2012,09,18,19,02,19.80
2012,09,18,19,03,19.80
2012,09,18,19,04,19.80
2012,09,18,19,05,19.80
2012,09,18,19,06,19.70
2012,09,18,19,07,19.70
2012,09,18,19,08,19.70
2012,09,18,19,09,19.70
2012,09,18,19,10,19.70
2012,09,18,19,11,19.60
2012,09,18,19,12,19.60
2012,09,18,19,13,19.60
2012,09,18,19,14,19.50
2012,09,18,19,15,19.50
2012,09,18,19,16,19.50
2012,09,18,19,17,19.50
2012,09,18,19,18,19.40
2012,09,18,19,19,19.40
2012,09,18,19,20,19.30
2012,09,18,19,21,19.30
2012,09,18,19,22,19.30
2012,09,18,19,23,19.20
2012,09,18,19,24,19.10
2012,09,18,19,25,19.10
2012,09,18,19,26,19.10
2012,09,18,19,27,19.10
2012,09,18,19,28,18.90
2012,09,18,19,29,18.90
2012,09,18,19,30,18.90
2012,09,18,19,31,18.90
2012,09,18,19,32,18.90
2012,09,18,19,33,18.80
2012,09,18,19,34,18.80
2012,09,18,19,35,18.80
2012,09,18,19,36,18.70
2012,09,18,19,37,18.70
2012,09,18,19,38,18.60
2012,09,18,19,39,18.60
2012,09,18,19,40,18.60
2012,09,18,19,41,18.50
2012,09,18,19,42,18.50
2012,09,18,19,43,18.40
2012,09,18,19,44,18.40
2012,09,18,19,45,18.30
2012,09,18,19,46,18.30
2012,09,18,19,47,18.30
2012,09,18,19,48,18.20
2012,09,18,19,49,18.20
2012,09,18,19,50,18.20
2012,09,18,19,51,18.20
2012,09,18,19,52,18.10
2012,09,18,19,53,18.10
2012,09,18,19,54,18.00
2012,09,18,19,55,17.90
2012,09,18,19,56,17.90
2012,09,18,19,57,17.90
2012,09,18,19,58,17.80
2012,09,18,19,59,17.80
2012,09,18,20,00,17.70
2012,09,18,20,01,17.70
2012,09,18,20,02,17.60
2012,09,18,20,03,17.60
2012,09,18,20,04,17.50
2012,09,18,20,05,17.50
2012,09,18,20,06,17.50
2012,09,18,20,07,17.40
2012,09,18,20,08,17.30
2012,09,18,20,09,17.30
2012,09,18,20,10,17.30
2012,09,18,20,11,17.20
2012,09,18,20,12,17.20
2012,09,18,20,13,17.10
2012,09,18,20,14,17.10
2012,09,18,20,15,17.00
2012,09,18,20,16,17.00
2012,09,18,20,17,17.00
2012,09,18,20,18,16.90
2012,09,18,20,19,16.90
2012,09,18,20,20,16.90
2012,09,18,20,21,16.80
2012,09,18,20,22,16.70
2012,09,18,20,23,16.70
2012,09,18,20,24,16.60
2012,09,18,20,25,16.60
2012,09,18,20,26,16.50
2012,09,18,20,27,16.40
2012,09,18,20,28,16.40
2012,09,18,20,29,16.40
2012,09,18,20,30,16.40
2012,09,18,20,31,16.40
2012,09,18,20,32,16.30
2012,09,18,20,33,16.30
2012,09,18,20,34,16.30
2012,09,18,20,35,16.30
2012,09,18,20,36,16.30
2012,09,18,20,37,16.20
2012,09,18,20,38,16.20
2012,09,18,20,39,16.20
2012,09,18,20,40,16.20
2012,09,18,20,41,16.10
2012,09,18,20,42,16.10
2012,09,18,20,43,16.10
2012,09,18,20,44,16.10
2012,09,18,20,45,16.10
2012,09,18,20,46,16.10
2012,09,18,20,47,16.10
2012,09,18,20,48,16.10
2012,09,18,20,49,16.10
2012,09,18,20,50,16.10
2012,09,18,20,51,16.10
2012,09,18,20,52,16.10
